Location: Appletree Creek
(38.7363°N, 122.6833°W)
Time: 09:55:20
(UTC+00:00)

Cosmos 2360 Rocket - Pass Details

Date: 18 September 2020
Orbit: 835 x 844 km, 71.0° (Epoch: 21 October)

Event Time Altitude Azimuth Distance (km) Brightness Sun altitude
Rises 12:45:49 0° 182° (S) 3,384 5.2 -14.2°
Reaches altitude 10° 12:48:21 10° 176° (S) 2,454 4.5 -13.8°
Maximum altitude 12:53:39 43° 106° (ESE) 1,163 3.4 -12.8°
Drops below altitude 10° 12:58:58 10° 36° (NE) 2,468 5.4 -11.7°
Sets 13:01:31 0° 30° (NNE) 3,406 6.0 -11.3°
